Weather History for Hawarden, United Kingdom

Change the Weather History Date:

Monday, October 21, 2013

  Actual Average (EGGP) Record (EGGP)
Temperature  
Mean Temperature 56 °F -  
Max Temperature 65 °F 50 °F 62 °F (1998)
Min Temperature 48 °F 42 °F 33 °F (2003)
Degree Days  
Heating Degree Days 8    
Growing Degree Days 6 (Base 50)    
Moisture  
Dew Point 57 °F    
Average Humidity 90    
Maximum Humidity 97    
Minimum Humidity 78    
Precipitation  
Precipitation 0.28 in - - ()
Sea Level Pressure  
Sea Level Pressure 29.47 in    
Wind  
Wind Speed 9 mph ()    
Max Wind Speed 15 mph    
Max Gust Speed -    
Visibility 7.0 miles    
Events Rain , Thunderstorm    
Averages and records for this station are not official NWS values.
T = Trace of Precipitation, MM = Missing Value Source: Averaged Metar Reports

Daily Weather History Graph

Daily Weather History Graph

Search for Another Location

Airport:

Trip Planner

Search our weather history database for the weather conditions in past years. The results will help you decide how hot, cold, wet, or windy it might be!

Date:

Astronomy

Oct. 21, 2013 Rise Set
Actual Time 7:49 AM BST 6:02 PM BST
Civil Twilight 7:14 AM BST 6:38 PM BST
Nautical Twilight 6:33 AM BST 7:18 PM BST
Astronomical Twilight 5:53 AM BST 7:58 PM BST
Moon 7:24 PM BST (10/21) 10:30 AM BST (10/21)
Length of Visible Light 11h 23m
Length of Day
10h 12m
Waning Gibbous, 94% of the Moon is Illuminated
Oct 21
Waning Gibbous
Oct 27
Last Quarter
Nov 3
New
Nov 10
First Quarter
Nov 17
Full

Hourly Weather History & Observations

Time (BST) Temp. Dew Point Humidity Pressure Visibility Wind Dir Wind Speed Gust Speed Precip Events Conditions
12:50 AM 51 °F 50 °F 96% 29.62 in 4 mi SE 6.9 mph - -   Mist
6:20 AM 51.8 °F 50.0 °F 94% 29.59 in 6.2 mi SSE 6.9 mph - N/A   Light Drizzle
6:50 AM 51 °F 50 °F 97% 29.60 in 9 mi SSE 5.8 mph - -  
6:50 AM 51.8 °F 50.0 °F 94% 29.59 in 6.2 mi SE 5.8 mph - N/A   Scattered Clouds
9:50 AM 54 °F 53 °F 97% 29.52 in 4 mi ESE 10.4 mph - - Rain Rain
11:20 AM 57.2 °F 55.4 °F 94% 29.47 in 5.6 mi SSE 10.4 mph - N/A Thunderstorm Thunderstorm
11:50 AM 59.0 °F 57.2 °F 94% 29.44 in 6.2 mi SSE 11.5 mph - N/A   Mostly Cloudy
12:50 PM 61 °F 59 °F 92% 29.46 in 22 mi SSE 10.4 mph - - Rain Rain
12:50 PM 60.8 °F 57.2 °F 88% 29.44 in 6.2 mi SSE 12.7 mph - N/A   Scattered Clouds
1:20 PM 62.6 °F 59.0 °F 88% 29.44 in 6.2 mi SSE 9.2 mph - N/A   Partly Cloudy
1:50 PM 60.8 °F 57.2 °F 88% 29.44 in 6.2 mi SSE 12.7 mph - N/A   Scattered Clouds
2:20 PM 66.2 °F 59.0 °F 78% 29.44 in 6.2 mi SSE 13.8 mph - N/A   Scattered Clouds
2:50 PM 66.2 °F 59.0 °F 78% 29.44 in 6.2 mi South 11.5 mph - N/A   Scattered Clouds
3:20 PM 66.2 °F 59.0 °F 78% 29.44 in 6.2 mi SSE 11.5 mph - N/A Rain Light Rain Showers
3:50 PM 64 °F 59 °F 80% 29.45 in 14 mi SSE 11.5 mph - - Rain Light Rain Showers
3:50 PM 64.4 °F 62.6 °F 94% 29.44 in 6.2 mi SSE 11.5 mph - N/A Rain Light Rain Showers
4:20 PM 62.6 °F 59.0 °F 88% 29.44 in 6.2 mi SSE 10.4 mph - N/A Rain Light Rain Showers
4:50 PM 64.4 °F 60.8 °F 88% 29.44 in 6.2 mi South 12.7 mph - N/A Rain Light Rain Showers
5:20 PM 62.6 °F 60.8 °F 94% 29.44 in 6.2 mi South 12.7 mph - N/A   Partly Cloudy
5:50 PM 62.6 °F 59.0 °F 88% 29.44 in 6.2 mi SSE 9.2 mph - N/A   Partly Cloudy
6:50 PM 61 °F 58 °F 88% 29.46 in 19 mi SSE 11.5 mph - -   Scattered Clouds
6:50 PM 60.8 °F 59.0 °F 94% 29.44 in 6.2 mi SSE 11.5 mph - N/A   Partly Cloudy
7:20 PM 62.6 °F 60.8 °F 94% 29.44 in 6.2 mi SSE 10.4 mph - N/A   Partly Cloudy
7:50 PM 60.8 °F 57.2 °F 88% 29.44 in 6.2 mi SSE 15.0 mph - N/A   Partly Cloudy
9:50 PM 60 °F 58 °F 92% 29.43 in 6 mi SE 13.8 mph - - Rain Rain